2024-169C

Last updated on Tue Oct 08 2024 00:02:04 GMT+0000 (Coordinated Universal Time)

1 61191U 24169C 24281.52021957 .00023452 00000+0 14540-2 0 9999 2 61191 97.5943 6.7591 0010014 206.9169 153.1542 15.09700133 2613
UTC large
Height (km)
Speed (km/s)
/
Latitude / Longitude
Inclination (degrees)
Orbital Period (minutes)
Azimuth
Elevation
Range (km)
Doppler Factor

Next 0 passes for location: London (51.5072 / 0.1276)

Sorry there are no passes over London.